OpenBCM V1.13 (Linux)

Packet Radio Mailbox

DB0FHN

[JN59NK Nuernberg]

 Login: GUEST





  
CX2SA  > KEPS     28.08.04 05:06l 95 Lines 2472 Bytes #999 (0) @ AMSAT
BID : ORB04240.M
Read: GUEST
Subj: Orbital Elements  04240.MISC
Path: DB0FHN<DB0FOR<DB0SIF<DB0AIS<DB0ZDF<DB0GE<F6KFT<F6KMO<ON0BEL<ZL2TZE<
      ED1ZAC<CX2SA
Sent: 040828/0300Z @:CX2SA.LAV.URY.SA #:6112 [Minas] FBB7.00e $:ORB04240.M
From: CX2SA@CX2SA.LAV.URY.SA
To  : KEPS@AMSAT


HR AMSAT ORBITAL ELEMENTS FOR MANNED AND MISCELLANEOUS SATELLITES
FROM WA5QGD FORT WORTH,TX August 27, 2004
SEND SUBSCRIBE/UNSUBSCRIBE TO majordomo@amsat.org ONLY
BID: ORB04240.M
TO ALL RADIO AMATEURS BT

Satellite: HUBBLE
Catalog number: 20580
Epoch time:      04240.54345047
Element set:     140
Inclination:       28.4701 deg
RA of node:        21.4981 deg
Eccentricity:    0.0004797
Arg of perigee:    31.4983 deg
Mean anomaly:     328.5881 deg
Mean motion:   14.99276976 rev/day
Decay rate:      1.009e-05 rev/day^2
Epoch rev:           58612
Checksum:              299

Satellite: UARS
Catalog number: 21701
Epoch time:      04240.35781797
Element set:     254
Inclination:       56.9816 deg
RA of node:       300.9595 deg
Eccentricity:    0.0006495
Arg of perigee:   112.4903 deg
Mean anomaly:     247.6744 deg
Mean motion:   15.03604456 rev/day
Decay rate:        6.1e-07 rev/day^2
Epoch rev:           70929
Checksum:              301

Satellite: PO-34
Catalog number: 25520
Epoch time:      04240.90260790
Element set:     999
Inclination:       28.4597 deg
RA of node:       112.2778 deg
Eccentricity:    0.0005688
Arg of perigee:   270.7329 deg
Mean anomaly:      89.2614 deg
Mean motion:   15.15696560 rev/day
Decay rate:      1.049e-05 rev/day^2
Epoch rev:           32203
Checksum:              318

Satellite: ISS
Catalog number: 25544
Epoch time:      04240.93372685
Element set:     547
Inclination:       51.6374 deg
RA of node:       319.4542 deg
Eccentricity:    0.0005582
Arg of perigee:    85.4055 deg
Mean anomaly:     259.1881 deg
Mean motion:   15.69065041 rev/day
Decay rate:     1.7521e-04 rev/day^2
Epoch rev:           32958
Checksum:              311

Satellite: OO-38
Catalog number: 26063
Epoch time:      04240.86902317
Element set:     146
Inclination:      100.2199 deg
RA of node:        40.9231 deg
Eccentricity:    0.0037011
Arg of perigee:   159.9352 deg
Mean anomaly:     200.3304 deg
Mean motion:   14.35664152 rev/day
Decay rate:        7.7e-07 rev/day^2
Epoch rev:           24020
Checksum:              254

Satellite: NO-45
Catalog number: 26932
Epoch time:      04240.42587375
Element set:     839
Inclination:       67.0568 deg
RA of node:       263.9909 deg
Eccentricity:    0.0004708
Arg of perigee:   282.0833 deg
Mean anomaly:      77.9747 deg
Mean motion:   14.29439304 rev/day
Decay rate:       2.38e-06 rev/day^2
Epoch rev:           15181
Checksum:              336



Read previous mail | Read next mail


 15.06.2026 02:04:38lGo back Go up